Time,TemperatureF,DewpointF,PressureIn,WindDirection,WindDirectionDegrees,WindSpeedMPH,WindSpeedGustMPH,Humidity,HourlyPrecipIn,Conditions,Clouds,dailyrainin,SoftwareType,DateUTC
2013-05-29 00:10:00,52.8,42.0,30.17,East,94,3.0,3.0,68,0.00,,,0.00,weatherlink.com 1.10,2013-05-29 04:10:00,
2013-05-29 00:25:00,52.7,42.0,30.16,East,94,1.0,2.0,68,0.00,,,0.00,weatherlink.com 1.10,2013-05-29 04:25:00,
2013-05-29 00:40:00,52.4,42.0,30.16,East,92,1.0,3.0,69,0.00,,,0.00,weatherlink.com 1.10,2013-05-29 04:40:00,
2013-05-29 00:55:00,52.4,42.0,30.16,East,89,1.0,2.0,69,0.00,,,0.00,weatherlink.com 1.10,2013-05-29 04:55:00,
2013-05-29 01:10:00,52.3,42.0,30.15,East,89,2.0,3.0,69,0.00,,,0.00,weatherlink.com 1.10,2013-05-29 05:10:00,
2013-05-29 01:25:00,52.3,42.0,30.15,East,89,2.0,2.0,68,0.00,,,0.00,weatherlink.com 1.10,2013-05-29 05:25:00,
2013-05-29 01:40:00,52.1,42.0,30.15,East,89,1.0,2.0,69,0.00,,,0.00,weatherlink.com 1.10,2013-05-29 05:40:00,
2013-05-29 01:55:00,51.9,42.0,30.14,East,89,1.0,2.0,70,0.00,,,0.00,weatherlink.com 1.10,2013-05-29 05:55:00,
2013-05-29 02:10:00,51.7,43.0,30.14,East,90,1.0,1.0,71,0.00,,,0.00,weatherlink.com 1.10,2013-05-29 06:10:00,
2013-05-29 02:25:00,51.2,43.0,30.14,East,92,1.0,1.0,73,0.00,,,0.00,weatherlink.com 1.10,2013-05-29 06:25:00,
2013-05-29 02:40:00,51.0,43.0,30.14,East,91,0.0,1.0,75,0.00,,,0.00,weatherlink.com 1.10,2013-05-29 06:40:00,
2013-05-29 02:55:00,50.8,44.0,30.13,East,90,1.0,1.0,76,0.00,,,0.00,weatherlink.com 1.10,2013-05-29 06:55:00,
2013-05-29 03:10:00,50.6,44.0,30.12,East,92,1.0,1.0,78,0.00,,,0.00,weatherlink.com 1.10,2013-05-29 07:10:00,
2013-05-29 03:25:00,50.3,44.0,30.11,ESE,102,0.0,1.0,79,0.00,,,0.00,weatherlink.com 1.10,2013-05-29 07:25:00,
2013-05-29 03:40:00,49.3,45.0,30.11,East,101,0.0,1.0,84,0.00,,,0.00,weatherlink.com 1.10,2013-05-29 07:40:00,
2013-05-29 03:54:00,48.3,45.0,30.10,East,98,1.0,1.0,89,0.01,,,0.01,weatherlink.com 1.10,2013-05-29 07:54:00,
2013-05-29 04:10:00,48.0,46.0,30.11,East,98,0.0,1.0,91,0.02,,,0.02,weatherlink.com 1.10,2013-05-29 08:10:00,
2013-05-29 04:25:00,48.1,47.0,30.11,East,98,0.0,1.0,94,0.03,,,0.03,weatherlink.com 1.10,2013-05-29 08:25:00,
2013-05-29 04:40:00,48.5,47.0,30.11,East,98,0.0,1.0,94,0.04,,,0.04,weatherlink.com 1.10,2013-05-29 08:40:00,
2013-05-29 04:55:00,48.1,47.0,30.10,East,99,0.0,1.0,94,0.04,,,0.05,weatherlink.com 1.10,2013-05-29 08:55:00,
2013-05-29 05:10:00,48.2,47.0,30.11,NNW,335,0.0,1.0,95,0.03,,,0.05,weatherlink.com 1.10,2013-05-29 09:10:00,
2013-05-29 05:25:00,48.3,47.0,30.11,West,259,0.0,2.0,95,0.02,,,0.05,weatherlink.com 1.10,2013-05-29 09:25:00,
2013-05-29 05:40:00,48.3,47.0,30.11,West,260,0.0,1.0,95,0.02,,,0.06,weatherlink.com 1.10,2013-05-29 09:40:00,
2013-05-29 05:55:00,48.5,48.0,30.11,West,269,0.0,1.0,96,0.01,,,0.06,weatherlink.com 1.10,2013-05-29 09:55:00,
2013-05-29 06:10:00,49.3,49.0,30.11,WSW,256,1.0,4.0,97,0.03,,,0.08,weatherlink.com 1.10,2013-05-29 10:10:00,
2013-05-29 06:25:00,49.4,48.0,30.11,East,99,0.0,6.0,96,0.05,,,0.10,weatherlink.com 1.10,2013-05-29 10:25:00,
2013-05-29 06:40:00,48.9,48.0,30.13,SSW,198,0.0,1.0,96,0.09,,,0.15,weatherlink.com 1.10,2013-05-29 10:40:00,
2013-05-29 06:55:00,49.4,49.0,30.11,SSE,166,0.0,2.0,97,0.11,,,0.17,weatherlink.com 1.10,2013-05-29 10:55:00,
2013-05-29 07:10:00,49.8,49.0,30.11,SSE,159,1.0,204.0,97,0.09,,,0.17,weatherlink.com 1.10,2013-05-29 11:10:00,
2013-05-29 07:25:00,49.5,49.0,30.10,SE,133,0.0,121.0,97,0.07,,,0.17,weatherlink.com 1.10,2013-05-29 11:25:00,
2013-05-29 07:40:00,49.5,49.0,30.11,WSW,250,0.0,87.0,97,0.02,,,0.17,weatherlink.com 1.10,2013-05-29 11:40:00,
2013-05-29 07:55:00,49.5,49.0,30.11,SW,228,2.0,3.0,97,0.00,,,0.17,weatherlink.com 1.10,2013-05-29 11:55:00,
2013-05-29 08:10:00,49.7,49.0,30.11,SW,224,1.0,156.0,97,0.00,,,0.17,weatherlink.com 1.10,2013-05-29 12:10:00,
2013-05-29 08:25:00,49.8,49.0,30.11,ESE,117,0.0,3.0,98,0.01,,,0.18,weatherlink.com 1.10,2013-05-29 12:25:00,
2013-05-29 08:40:00,50.2,50.0,30.11,WSW,239,1.0,2.0,98,0.01,,,0.18,weatherlink.com 1.10,2013-05-29 12:40:00,
2013-05-29 08:55:00,50.4,50.0,30.11,SSE,163,0.0,1.0,98,0.02,,,0.19,weatherlink.com 1.10,2013-05-29 12:55:00,
2013-05-29 09:10:00,50.5,50.0,30.10,North,352,0.0,2.0,98,0.02,,,0.19,weatherlink.com 1.10,2013-05-29 13:10:00,
2013-05-29 09:25:00,50.7,50.0,30.10,SW,235,0.0,1.0,98,0.01,,,0.19,weatherlink.com 1.10,2013-05-29 13:25:00,
2013-05-29 09:40:00,51.0,51.0,30.10,West,266,0.0,1.0,98,0.01,,,0.19,weatherlink.com 1.10,2013-05-29 13:40:00,
2013-05-29 09:56:00,51.4,51.0,30.10,WNW,283,3.0,3.0,98,0.01,,,0.20,weatherlink.com 1.10,2013-05-29 13:56:00,
2013-05-29 10:11:00,51.5,51.0,30.09,SE,132,0.0,2.0,98,0.01,,,0.20,weatherlink.com 1.10,2013-05-29 14:11:00,
2013-05-29 10:26:00,51.7,51.0,30.09,SSW,210,2.0,4.0,98,0.01,,,0.20,weatherlink.com 1.10,2013-05-29 14:26:00,
2013-05-29 10:41:00,52.4,52.0,30.08,SSW,201,2.0,2.0,98,0.02,,,0.21,weatherlink.com 1.10,2013-05-29 14:41:00,
2013-05-29 10:56:00,52.6,52.0,30.06,ENE,63,0.0,1.0,98,0.02,,,0.22,weatherlink.com 1.10,2013-05-29 14:56:00,
2013-05-29 11:11:00,53.0,53.0,30.05,West,271,0.0,4.0,98,0.02,,,0.22,weatherlink.com 1.10,2013-05-29 15:11:00,
2013-05-29 11:26:00,53.3,53.0,30.04,South,169,0.0,2.0,98,0.02,,,0.22,weatherlink.com 1.10,2013-05-29 15:26:00,
2013-05-29 11:41:00,53.4,53.0,30.05,SSW,203,3.0,3.0,97,0.01,,,0.22,weatherlink.com 1.10,2013-05-29 15:41:00,
2013-05-29 11:56:00,53.2,53.0,30.07,SW,231,0.0,2.0,98,0.00,,,0.22,weatherlink.com 1.10,2013-05-29 15:56:00,
2013-05-29 12:11:00,53.4,53.0,30.07,SSW,210,0.0,3.0,98,0.00,,,0.22,weatherlink.com 1.10,2013-05-29 16:11:00,
2013-05-29 12:26:00,53.6,53.0,30.07,SW,236,0.0,2.0,98,0.00,,,0.22,weatherlink.com 1.10,2013-05-29 16:26:00,
2013-05-29 12:41:00,54.2,54.0,30.07,SSE,162,1.0,3.0,98,0.00,,,0.22,weatherlink.com 1.10,2013-05-29 16:41:00,
2013-05-29 12:56:00,54.4,54.0,30.06,SSE,168,0.0,2.0,98,0.00,,,0.22,weatherlink.com 1.10,2013-05-29 16:56:00,
2013-05-29 13:11:00,55.0,55.0,30.06,SE,143,0.0,3.0,98,0.00,,,0.22,weatherlink.com 1.10,2013-05-29 17:11:00,
2013-05-29 13:26:00,55.1,55.0,30.07,SW,218,0.0,5.0,98,0.00,,,0.22,weatherlink.com 1.10,2013-05-29 17:26:00,
2013-05-29 13:40:00,55.2,55.0,30.07,SW,229,2.0,2.0,98,0.00,,,0.22,weatherlink.com 1.10,2013-05-29 17:40:00,
2013-05-29 13:56:00,55.3,55.0,30.06,South,188,0.0,2.0,98,0.00,,,0.22,weatherlink.com 1.10,2013-05-29 17:56:00,
2013-05-29 14:11:00,55.4,55.0,30.06,SSW,197,0.0,6.0,98,0.00,,,0.22,weatherlink.com 1.10,2013-05-29 18:11:00,
2013-05-29 14:25:00,55.7,55.0,30.05,SSW,205,1.0,2.0,98,0.00,,,0.22,weatherlink.com 1.10,2013-05-29 18:25:00,
2013-05-29 14:41:00,56.2,56.0,30.05,SW,225,0.0,3.0,98,0.00,,,0.22,weatherlink.com 1.10,2013-05-29 18:41:00,
2013-05-29 14:56:00,57.2,57.0,30.05,SW,214,1.0,4.0,98,0.00,,,0.22,weatherlink.com 1.10,2013-05-29 18:56:00,
2013-05-29 15:11:00,57.5,57.0,30.06,ESE,113,1.0,3.0,97,0.00,,,0.22,weatherlink.com 1.10,2013-05-29 19:11:00,
2013-05-29 15:26:00,57.6,57.0,30.06,ESE,110,0.0,4.0,97,0.00,,,0.22,weatherlink.com 1.10,2013-05-29 19:26:00,
2013-05-29 15:41:00,58.2,57.0,30.05,ENE,68,0.0,5.0,97,0.00,,,0.22,weatherlink.com 1.10,2013-05-29 19:41:00,
2013-05-29 15:56:00,58.4,58.0,30.05,East,94,1.0,2.0,97,0.00,,,0.22,weatherlink.com 1.10,2013-05-29 19:56:00,
2013-05-29 16:11:00,57.8,57.0,30.06,East,86,0.0,2.0,96,0.00,,,0.22,weatherlink.com 1.10,2013-05-29 20:11:00,
2013-05-29 16:26:00,57.1,56.0,30.04,ESE,103,0.0,0.0,97,0.00,,,0.22,weatherlink.com 1.10,2013-05-29 20:26:00,
2013-05-29 16:41:00,57.0,56.0,30.04,ESE,102,1.0,1.0,97,0.00,,,0.22,weatherlink.com 1.10,2013-05-29 20:41:00,
2013-05-29 16:56:00,57.3,57.0,30.04,NE,44,2.0,2.0,98,0.00,,,0.22,weatherlink.com 1.10,2013-05-29 20:56:00,
2013-05-29 17:11:00,57.7,57.0,30.04,NE,41,1.0,2.0,98,0.00,,,0.22,weatherlink.com 1.10,2013-05-29 21:11:00,
2013-05-29 17:26:00,57.4,57.0,30.05,East,89,0.0,1.0,98,0.00,,,0.22,weatherlink.com 1.10,2013-05-29 21:26:00,
2013-05-29 17:41:00,57.3,57.0,30.04,East,99,0.0,1.0,98,0.00,,,0.22,weatherlink.com 1.10,2013-05-29 21:41:00,
2013-05-29 17:56:00,57.2,57.0,30.02,East,94,0.0,1.0,98,0.01,,,0.23,weatherlink.com 1.10,2013-05-29 21:56:00,
2013-05-29 18:11:00,57.2,57.0,30.01,ENE,72,1.0,3.0,98,0.01,,,0.23,weatherlink.com 1.10,2013-05-29 22:11:00,
2013-05-29 18:26:00,57.2,57.0,30.02,NE,34,1.0,2.0,98,0.01,,,0.23,weatherlink.com 1.10,2013-05-29 22:26:00,
2013-05-29 18:41:00,57.5,57.0,30.02,NNW,340,0.0,2.0,99,0.01,,,0.23,weatherlink.com 1.10,2013-05-29 22:41:00,
2013-05-29 18:56:00,57.4,57.0,30.02,NE,47,0.0,2.0,98,0.00,,,0.23,weatherlink.com 1.10,2013-05-29 22:56:00,
2013-05-29 19:11:00,57.5,57.0,30.02,NNE,18,0.0,2.0,99,0.00,,,0.23,weatherlink.com 1.10,2013-05-29 23:11:00,
2013-05-29 19:26:00,57.1,57.0,30.02,WSW,242,1.0,1.0,98,0.00,,,0.23,weatherlink.com 1.10,2013-05-29 23:26:00,
2013-05-29 19:41:00,56.9,56.0,30.03,West,269,0.0,1.0,98,0.00,,,0.23,weatherlink.com 1.10,2013-05-29 23:41:00,
2013-05-29 19:56:00,57.1,57.0,30.02,NE,44,0.0,3.0,99,0.00,,,0.23,weatherlink.com 1.10,2013-05-29 23:56:00,
2013-05-29 20:11:00,58.2,58.0,30.02,WSW,240,1.0,6.0,99,0.00,,,0.23,weatherlink.com 1.10,2013-05-30 00:11:00,
2013-05-29 20:26:00,58.2,58.0,30.02,SE,129,0.0,6.0,99,0.01,,,0.24,weatherlink.com 1.10,2013-05-30 00:26:00,
2013-05-29 20:41:00,57.9,58.0,30.01,ENE,74,1.0,2.0,99,0.02,,,0.25,weatherlink.com 1.10,2013-05-30 00:41:00,
2013-05-29 20:56:00,57.3,57.0,30.01,ENE,65,1.0,3.0,99,0.03,,,0.26,weatherlink.com 1.10,2013-05-30 00:56:00,
2013-05-29 21:11:00,56.9,57.0,30.00,ENE,63,2.0,3.0,99,0.05,,,0.28,weatherlink.com 1.10,2013-05-30 01:11:00,
2013-05-29 21:26:00,57.2,57.0,30.01,East,89,1.0,4.0,99,0.04,,,0.28,weatherlink.com 1.10,2013-05-30 01:26:00,
2013-05-29 21:41:00,57.8,58.0,30.01,NNE,12,1.0,3.0,99,0.03,,,0.28,weatherlink.com 1.10,2013-05-30 01:41:00,
2013-05-29 21:56:00,58.0,58.0,30.00,West,264,1.0,4.0,99,0.02,,,0.28,weatherlink.com 1.10,2013-05-30 01:56:00,
2013-05-29 22:11:00,58.1,58.0,30.01,SSW,193,0.0,4.0,99,0.00,,,0.28,weatherlink.com 1.10,2013-05-30 02:11:00,
2013-05-29 22:26:00,58.5,58.0,30.01,ESE,120,1.0,3.0,99,0.00,,,0.28,weatherlink.com 1.10,2013-05-30 02:26:00,
2013-05-29 22:41:00,57.8,58.0,30.01,NW,311,0.0,3.0,99,0.00,,,0.28,weatherlink.com 1.10,2013-05-30 02:41:00,
2013-05-29 22:56:00,57.1,57.0,30.02,WNW,291,0.0,1.0,99,0.00,,,0.28,weatherlink.com 1.10,2013-05-30 02:56:00,
2013-05-29 23:12:00,56.7,57.0,30.03,SSE,151,0.0,0.0,99,0.00,,,0.28,weatherlink.com 1.10,2013-05-30 03:12:00,
2013-05-29 23:27:00,57.8,58.0,30.02,East,99,0.0,3.0,99,0.00,,,0.28,weatherlink.com 1.10,2013-05-30 03:27:00,
2013-05-29 23:42:00,59.3,59.0,30.02,ESE,110,0.0,1.0,99,0.00,,,0.28,weatherlink.com 1.10,2013-05-30 03:42:00,
2013-05-29 23:57:00,59.7,60.0,30.03,East,101,0.0,1.0,99,0.00,,,0.28,weatherlink.com 1.10,2013-05-30 03:57:00,